Time,TemperatureF,DewpointF,PressureIn,WindDirection,WindDirectionDegrees,WindSpeedMPH,WindSpeedGustMPH,Humidity,HourlyPrecipIn,Conditions,Clouds,dailyrainin,SolarRadiationWatts/m^2,SoftwareType,DateUTC
2013-04-26 00:02:00,56.1,28.0,29.67,North,0,2.0,5.0,34,0.00,,,0.00,0.0,meteohub,2013-04-26 06:02:00,
2013-04-26 00:07:00,55.9,28.8,29.67,NNW,346,5.0,6.0,35,0.00,,,0.00,0.0,meteohub,2013-04-26 06:07:00,
2013-04-26 00:12:00,55.9,28.8,29.67,NNE,16,4.0,6.0,35,0.00,,,0.00,0.0,meteohub,2013-04-26 06:12:00,
2013-04-26 00:17:00,55.9,28.8,29.67,NNW,330,4.0,8.0,35,0.00,,,0.00,0.0,meteohub,2013-04-26 06:17:00,
2013-04-26 00:22:00,55.6,29.1,29.67,NNW,347,1.0,8.0,36,0.00,,,0.00,0.0,meteohub,2013-04-26 06:22:00,
2013-04-26 00:27:00,55.2,28.8,29.67,NNW,336,6.0,8.0,36,0.00,,,0.00,0.0,meteohub,2013-04-26 06:27:00,
2013-04-26 00:32:00,55.2,29.5,29.67,North,355,7.0,7.0,37,0.00,,,0.00,0.0,meteohub,2013-04-26 06:32:00,
2013-04-26 00:37:00,55.2,29.5,29.67,NNE,21,7.0,9.0,37,0.00,,,0.00,0.0,meteohub,2013-04-26 06:37:00,
2013-04-26 00:42:00,54.9,29.1,29.67,NNE,30,2.0,9.0,37,0.00,,,0.00,0.0,meteohub,2013-04-26 06:42:00,
2013-04-26 00:47:00,54.3,28.6,29.67,NE,40,4.0,9.0,37,0.00,,,0.00,0.0,meteohub,2013-04-26 06:47:00,
2013-04-26 00:52:00,54.1,28.4,29.66,NNE,25,5.0,9.0,37,0.00,,,0.00,0.0,meteohub,2013-04-26 06:52:00,
2013-04-26 00:57:00,54.0,28.9,29.67,NNE,18,4.0,9.0,38,0.00,,,0.00,0.0,meteohub,2013-04-26 06:57:00,
2013-04-26 01:02:00,54.1,29.1,29.67,North,10,7.0,9.0,38,0.00,,,0.00,0.0,meteohub,2013-04-26 07:02:00,
2013-04-26 01:07:00,54.5,29.5,29.66,North,355,2.0,9.0,38,0.00,,,0.00,0.0,meteohub,2013-04-26 07:07:00,
2013-04-26 01:12:00,54.7,29.5,29.66,NNE,18,2.0,9.0,38,0.00,,,0.00,0.0,meteohub,2013-04-26 07:12:00,
2013-04-26 01:17:00,54.5,29.5,29.66,North,5,2.0,9.0,38,0.00,,,0.00,0.0,meteohub,2013-04-26 07:17:00,
2013-04-26 01:22:00,54.3,29.3,29.66,NE,36,1.0,6.0,38,0.00,,,0.00,0.0,meteohub,2013-04-26 07:22:00,
2013-04-26 01:27:00,54.1,29.1,29.66,NNE,30,2.0,6.0,38,0.00,,,0.00,0.0,meteohub,2013-04-26 07:27:00,
2013-04-26 01:32:00,54.0,28.9,29.65,NNE,25,2.0,6.0,38,0.00,,,0.00,0.0,meteohub,2013-04-26 07:32:00,
2013-04-26 01:37:00,53.8,29.5,29.65,NNE,32,3.0,5.0,39,0.00,,,0.00,0.0,meteohub,2013-04-26 07:37:00,
2013-04-26 01:42:00,53.8,29.5,29.65,North,5,1.0,4.0,39,0.00,,,0.00,0.0,meteohub,2013-04-26 07:42:00,
2013-04-26 01:47:00,54.0,29.5,29.65,North,351,2.0,5.0,39,0.00,,,0.00,0.0,meteohub,2013-04-26 07:47:00,
2013-04-26 01:52:00,53.4,29.7,29.65,WNW,286,3.0,5.0,40,0.00,,,0.00,0.0,meteohub,2013-04-26 07:52:00,
2013-04-26 01:57:00,53.2,29.5,29.65,North,9,2.0,5.0,40,0.00,,,0.00,0.0,meteohub,2013-04-26 07:57:00,
2013-04-26 02:02:00,53.2,29.5,29.65,NE,38,2.0,8.0,40,0.00,,,0.00,0.0,meteohub,2013-04-26 08:02:00,
2013-04-26 02:07:00,53.1,29.3,29.65,NE,37,1.0,8.0,40,0.00,,,0.00,0.0,meteohub,2013-04-26 08:07:00,
2013-04-26 02:12:00,52.5,29.5,29.65,NE,36,2.0,4.0,41,0.00,,,0.00,0.0,meteohub,2013-04-26 08:12:00,
2013-04-26 02:17:00,52.2,29.8,29.65,NE,37,0.0,3.0,42,0.00,,,0.00,0.0,meteohub,2013-04-26 08:17:00,
2013-04-26 02:22:00,51.6,29.3,29.65,NE,37,0.0,2.0,42,0.00,,,0.00,0.0,meteohub,2013-04-26 08:22:00,
2013-04-26 02:27:00,51.4,29.7,29.65,NNE,30,0.0,2.0,43,0.00,,,0.00,0.0,meteohub,2013-04-26 08:27:00,
2013-04-26 02:32:00,51.3,29.5,29.66,NNE,30,0.0,2.0,43,0.00,,,0.00,0.0,meteohub,2013-04-26 08:32:00,
2013-04-26 02:37:00,51.1,29.3,29.65,NNE,31,1.0,2.0,43,0.00,,,0.00,0.0,meteohub,2013-04-26 08:37:00,
2013-04-26 02:42:00,50.4,29.3,29.66,NNE,31,0.0,2.0,44,0.00,,,0.00,0.0,meteohub,2013-04-26 08:42:00,
2013-04-26 02:47:00,49.6,29.7,29.67,WSW,240,0.0,4.0,46,0.00,,,0.00,0.0,meteohub,2013-04-26 08:47:00,
2013-04-26 02:52:00,49.5,29.5,29.66,WSW,240,0.0,4.0,46,0.00,,,0.00,0.0,meteohub,2013-04-26 08:52:00,
2013-04-26 02:57:00,49.3,29.3,29.67,WSW,240,0.0,4.0,46,0.00,,,0.00,0.0,meteohub,2013-04-26 08:57:00,
2013-04-26 03:02:00,49.3,29.8,29.67,WSW,240,0.0,3.0,47,0.00,,,0.00,0.0,meteohub,2013-04-26 09:02:00,
2013-04-26 03:07:00,49.3,29.8,29.67,South,178,0.0,2.0,47,0.00,,,0.00,0.0,meteohub,2013-04-26 09:07:00,
2013-04-26 03:12:00,49.1,29.7,29.68,South,178,0.0,3.0,47,0.00,,,0.00,0.0,meteohub,2013-04-26 09:12:00,
2013-04-26 03:17:00,49.1,30.2,29.68,South,178,0.0,3.0,48,0.00,,,0.00,0.0,meteohub,2013-04-26 09:17:00,
2013-04-26 03:22:00,49.1,30.2,29.68,South,178,1.0,3.0,48,0.00,,,0.00,0.0,meteohub,2013-04-26 09:22:00,
2013-04-26 03:27:00,49.3,30.4,29.68,South,178,0.0,2.0,48,0.00,,,0.00,0.0,meteohub,2013-04-26 09:27:00,
2013-04-26 03:32:00,49.3,30.4,29.69,South,178,0.0,2.0,48,0.00,,,0.00,0.0,meteohub,2013-04-26 09:32:00,
2013-04-26 03:37:00,49.5,30.6,29.69,South,178,0.0,2.0,48,0.00,,,0.00,0.0,meteohub,2013-04-26 09:37:00,
2013-04-26 03:42:00,49.6,30.7,29.69,South,178,0.0,1.0,48,0.00,,,0.00,0.0,meteohub,2013-04-26 09:42:00,
2013-04-26 03:47:00,49.6,30.7,29.69,South,178,0.0,1.0,48,0.00,,,0.00,0.0,meteohub,2013-04-26 09:47:00,
2013-04-26 03:52:00,49.8,30.9,29.69,South,177,0.0,0.0,48,0.00,,,0.00,0.0,meteohub,2013-04-26 09:52:00,
2013-04-26 03:57:00,49.8,30.9,29.69,South,177,0.0,3.0,48,0.00,,,0.00,0.0,meteohub,2013-04-26 09:57:00,
2013-04-26 04:02:00,50.0,31.1,29.69,SSE,157,0.0,3.0,48,0.00,,,0.00,0.0,meteohub,2013-04-26 10:02:00,
2013-04-26 04:07:00,50.0,31.1,29.69,SSE,157,0.0,3.0,48,0.00,,,0.00,0.0,meteohub,2013-04-26 10:07:00,
2013-04-26 04:12:00,50.0,31.1,29.69,SSE,157,0.0,3.0,48,0.00,,,0.00,0.0,meteohub,2013-04-26 10:12:00,
2013-04-26 04:17:00,50.2,30.7,29.69,SSE,157,0.0,3.0,47,0.00,,,0.00,0.0,meteohub,2013-04-26 10:17:00,
2013-04-26 04:22:00,50.2,31.3,29.69,SSE,157,1.0,2.0,48,0.00,,,0.00,0.0,meteohub,2013-04-26 10:22:00,
2013-04-26 04:27:00,50.2,30.7,29.70,SSE,150,0.0,2.0,47,0.00,,,0.00,0.0,meteohub,2013-04-26 10:27:00,
2013-04-26 04:32:00,50.4,30.9,29.70,SSE,147,0.0,3.0,47,0.00,,,0.00,0.0,meteohub,2013-04-26 10:32:00,
2013-04-26 04:37:00,50.4,30.9,29.70,SE,140,0.0,3.0,47,0.00,,,0.00,0.0,meteohub,2013-04-26 10:37:00,
2013-04-26 04:42:00,50.4,30.9,29.70,SE,140,0.0,3.0,47,0.00,,,0.00,0.0,meteohub,2013-04-26 10:42:00,
2013-04-26 04:47:00,50.2,30.7,29.70,SE,140,0.0,3.0,47,0.00,,,0.00,0.0,meteohub,2013-04-26 10:47:00,
2013-04-26 04:52:00,50.0,30.6,29.70,SE,140,1.0,2.0,47,0.00,,,0.00,0.0,meteohub,2013-04-26 10:52:00,
2013-04-26 04:57:00,50.0,30.6,29.70,SE,140,0.0,2.0,47,0.00,,,0.00,0.0,meteohub,2013-04-26 10:57:00,
2013-04-26 05:02:00,50.0,31.1,29.70,SE,140,0.0,2.0,48,0.00,,,0.00,0.0,meteohub,2013-04-26 11:02:00,
2013-04-26 05:07:00,50.2,30.7,29.70,SE,140,0.0,2.0,47,0.00,,,0.00,0.0,meteohub,2013-04-26 11:07:00,
2013-04-26 05:12:00,50.2,30.7,29.71,SE,140,0.0,2.0,47,0.00,,,0.00,0.0,meteohub,2013-04-26 11:12:00,
2013-04-26 05:17:00,49.8,30.9,29.71,SE,140,0.0,2.0,48,0.00,,,0.00,0.0,meteohub,2013-04-26 11:17:00,
2013-04-26 05:22:00,49.6,30.7,29.71,SE,140,0.0,2.0,48,0.00,,,0.00,0.0,meteohub,2013-04-26 11:22:00,
2013-04-26 05:27:00,49.3,30.9,29.71,SE,140,0.0,2.0,49,0.00,,,0.00,0.0,meteohub,2013-04-26 11:27:00,
2013-04-26 05:32:00,48.9,30.6,29.71,SE,140,0.0,0.0,49,0.00,,,0.00,0.0,meteohub,2013-04-26 11:32:00,
2013-04-26 05:37:00,48.7,30.9,29.72,SE,140,0.0,1.0,50,0.00,,,0.00,0.0,meteohub,2013-04-26 11:37:00,
2013-04-26 05:42:00,48.6,30.7,29.72,SE,140,0.0,1.0,50,0.00,,,0.00,0.0,meteohub,2013-04-26 11:42:00,
2013-04-26 05:47:00,48.2,30.9,29.72,SE,140,1.0,2.0,51,0.00,,,0.00,0.0,meteohub,2013-04-26 11:47:00,
2013-04-26 05:52:00,48.0,30.7,29.72,SE,140,2.0,2.0,51,0.00,,,0.00,0.0,meteohub,2013-04-26 11:52:00,
2013-04-26 05:57:00,47.7,30.9,29.72,SE,140,0.0,2.0,52,0.00,,,0.00,0.0,meteohub,2013-04-26 11:57:00,
2013-04-26 06:02:00,47.7,30.9,29.73,SE,140,0.0,3.0,52,0.00,,,0.00,0.0,meteohub,2013-04-26 12:02:00,
2013-04-26 06:07:00,47.7,30.9,29.73,SE,140,0.0,3.0,52,0.00,,,0.00,0.0,meteohub,2013-04-26 12:07:00,
2013-04-26 06:12:00,47.5,30.7,29.73,SE,140,0.0,3.0,52,0.00,,,0.00,0.0,meteohub,2013-04-26 12:12:00,
2013-04-26 06:17:00,47.5,30.7,29.73,SE,140,0.0,3.0,52,0.00,,,0.00,0.0,meteohub,2013-04-26 12:17:00,
2013-04-26 06:22:00,47.3,30.6,29.74,SE,140,0.0,3.0,52,0.00,,,0.00,5.0,meteohub,2013-04-26 12:22:00,
2013-04-26 06:27:00,47.3,30.0,29.74,SE,140,1.0,2.0,51,0.00,,,0.00,9.0,meteohub,2013-04-26 12:27:00,
2013-04-26 06:32:00,47.3,29.7,29.74,SE,140,0.0,2.0,50,0.00,,,0.00,11.0,meteohub,2013-04-26 12:32:00,
2013-04-26 06:37:00,47.1,28.9,29.74,SE,140,0.0,2.0,49,0.00,,,0.00,14.0,meteohub,2013-04-26 12:37:00,
2013-04-26 06:42:00,47.5,28.8,29.74,SE,140,0.0,2.0,48,0.00,,,0.00,18.0,meteohub,2013-04-26 12:42:00,
2013-04-26 06:47:00,47.1,28.4,29.74,SE,140,0.0,1.0,48,0.00,,,0.00,21.0,meteohub,2013-04-26 12:47:00,
2013-04-26 06:52:00,46.9,28.2,29.74,SE,140,0.0,1.0,48,0.00,,,0.00,25.0,meteohub,2013-04-26 12:52:00,
2013-04-26 06:57:00,47.3,28.6,29.74,SE,140,0.0,2.0,48,0.00,,,0.00,28.0,meteohub,2013-04-26 12:57:00,
2013-04-26 07:02:00,47.5,28.8,29.75,SE,140,0.0,3.0,48,0.00,,,0.00,72.0,meteohub,2013-04-26 13:02:00,
2013-04-26 07:07:00,48.0,28.8,29.75,SE,145,2.0,3.0,47,0.00,,,0.00,90.0,meteohub,2013-04-26 13:07:00,
2013-04-26 07:12:00,48.9,28.6,29.75,SE,142,0.0,3.0,45,0.00,,,0.00,109.0,meteohub,2013-04-26 13:12:00,
2013-04-26 07:17:00,49.6,28.6,29.76,SE,142,0.0,4.0,44,0.00,,,0.00,128.0,meteohub,2013-04-26 13:17:00,
2013-04-26 07:22:00,49.6,28.6,29.76,SE,141,1.0,4.0,44,0.00,,,0.00,146.0,meteohub,2013-04-26 13:22:00,
2013-04-26 07:27:00,50.0,27.9,29.76,SE,143,2.0,4.0,42,0.00,,,0.00,163.0,meteohub,2013-04-26 13:27:00,
2013-04-26 07:32:00,50.5,27.7,29.77,SSE,153,2.0,4.0,41,0.00,,,0.00,178.0,meteohub,2013-04-26 13:32:00,
2013-04-26 07:37:00,50.9,26.8,29.77,SSE,153,2.0,4.0,39,0.00,,,0.00,195.0,meteohub,2013-04-26 13:37:00,
2013-04-26 07:42:00,51.4,26.1,29.77,SSE,153,0.0,4.0,37,0.00,,,0.00,213.0,meteohub,2013-04-26 13:42:00,
2013-04-26 07:47:00,51.4,25.3,29.78,SSE,156,2.0,4.0,36,0.00,,,0.00,230.0,meteohub,2013-04-26 13:47:00,
2013-04-26 07:52:00,51.8,25.7,29.78,SSE,159,4.0,4.0,36,0.00,,,0.00,248.0,meteohub,2013-04-26 13:52:00,
2013-04-26 07:57:00,52.0,25.2,29.78,South,175,0.0,5.0,35,0.00,,,0.00,265.0,meteohub,2013-04-26 13:57:00,
2013-04-26 08:02:00,52.3,24.8,29.78,SSE,152,1.0,5.0,34,0.00,,,0.00,285.0,meteohub,2013-04-26 14:02:00,
2013-04-26 08:07:00,52.5,24.3,29.78,South,175,5.0,5.0,33,0.00,,,0.00,301.0,meteohub,2013-04-26 14:07:00,
2013-04-26 08:12:00,52.9,24.6,29.78,South,169,3.0,5.0,33,0.00,,,0.00,318.0,meteohub,2013-04-26 14:12:00,
2013-04-26 08:17:00,53.4,25.0,29.78,SSE,162,1.0,5.0,33,0.00,,,0.00,338.0,meteohub,2013-04-26 14:17:00,
2013-04-26 08:22:00,53.8,25.3,29.78,SSE,163,0.0,5.0,33,0.00,,,0.00,355.0,meteohub,2013-04-26 14:22:00,
2013-04-26 08:27:00,54.3,25.2,29.78,SSE,163,1.0,4.0,32,0.00,,,0.00,374.0,meteohub,2013-04-26 14:27:00,
2013-04-26 08:32:00,54.5,26.1,29.78,SSE,163,0.0,3.0,33,0.00,,,0.00,392.0,meteohub,2013-04-26 14:32:00,
2013-04-26 08:37:00,54.9,25.5,29.78,South,184,2.0,2.0,32,0.00,,,0.00,410.0,meteohub,2013-04-26 14:37:00,
2013-04-26 08:42:00,55.0,25.0,29.78,South,184,0.0,4.0,31,0.00,,,0.00,424.0,meteohub,2013-04-26 14:42:00,
2013-04-26 08:47:00,55.2,24.3,29.78,East,89,2.0,4.0,30,0.00,,,0.00,439.0,meteohub,2013-04-26 14:47:00,
2013-04-26 08:52:00,55.2,24.3,29.78,East,86,0.0,3.0,30,0.00,,,0.00,459.0,meteohub,2013-04-26 14:52:00,
2013-04-26 08:57:00,55.8,24.8,29.78,NNW,334,3.0,3.0,30,0.00,,,0.00,476.0,meteohub,2013-04-26 14:57:00,
2013-04-26 09:02:00,55.8,25.5,29.78,NNW,348,2.0,4.0,31,0.00,,,0.00,492.0,meteohub,2013-04-26 15:02:00,
2013-04-26 09:07:00,55.6,25.3,29.78,NNW,338,1.0,6.0,31,0.00,,,0.00,510.0,meteohub,2013-04-26 15:07:00,
2013-04-26 09:12:00,56.3,25.3,29.78,NW,326,1.0,6.0,30,0.00,,,0.00,527.0,meteohub,2013-04-26 15:12:00,
2013-04-26 09:17:00,56.5,25.3,29.78,North,355,2.0,6.0,30,0.00,,,0.00,541.0,meteohub,2013-04-26 15:17:00,
2013-04-26 09:22:00,56.7,25.5,29.78,NNW,334,2.0,4.0,30,0.00,,,0.00,557.0,meteohub,2013-04-26 15:22:00,
2013-04-26 09:27:00,56.8,25.0,29.78,NNW,333,1.0,4.0,29,0.00,,,0.00,573.0,meteohub,2013-04-26 15:27:00,
2013-04-26 09:32:00,57.4,25.3,29.78,North,355,4.0,4.0,29,0.00,,,0.00,589.0,meteohub,2013-04-26 15:32:00,
2013-04-26 09:37:00,57.4,24.6,29.79,North,10,1.0,4.0,28,0.00,,,0.00,605.0,meteohub,2013-04-26 15:37:00,
2013-04-26 09:42:00,57.6,25.5,29.78,West,263,3.0,4.0,29,0.00,,,0.00,619.0,meteohub,2013-04-26 15:42:00,
2013-04-26 09:47:00,58.3,25.3,29.79,SW,234,3.0,4.0,28,0.00,,,0.00,633.0,meteohub,2013-04-26 15:47:00,
2013-04-26 09:52:00,58.6,25.7,29.79,WSW,246,2.0,4.0,28,0.00,,,0.00,649.0,meteohub,2013-04-26 15:52:00,
2013-04-26 09:57:00,58.6,24.8,29.79,WSW,242,3.0,5.0,27,0.00,,,0.00,661.0,meteohub,2013-04-26 15:57:00,
2013-04-26 10:02:00,58.1,25.2,29.79,NNW,328,5.0,6.0,28,0.00,,,0.00,675.0,meteohub,2013-04-26 16:02:00,
2013-04-26 10:07:00,59.0,25.0,29.79,WNW,298,4.0,7.0,27,0.00,,,0.00,689.0,meteohub,2013-04-26 16:07:00,
2013-04-26 10:12:00,58.8,25.0,29.79,SW,227,0.0,7.0,27,0.00,,,0.00,703.0,meteohub,2013-04-26 16:12:00,
2013-04-26 10:17:00,59.2,24.3,29.79,SSW,210,3.0,7.0,26,0.00,,,0.00,717.0,meteohub,2013-04-26 16:17:00,
2013-04-26 10:22:00,59.4,24.4,29.79,SSW,208,3.0,7.0,26,0.00,,,0.00,729.0,meteohub,2013-04-26 16:22:00,
2013-04-26 10:27:00,59.5,24.6,29.79,South,184,1.0,5.0,26,0.00,,,0.00,742.0,meteohub,2013-04-26 16:27:00,
2013-04-26 10:32:00,60.4,26.2,29.79,SSW,193,3.0,5.0,27,0.00,,,0.00,758.0,meteohub,2013-04-26 16:32:00,
2013-04-26 10:37:00,60.3,25.2,29.79,WSW,246,3.0,6.0,26,0.00,,,0.00,766.0,meteohub,2013-04-26 16:37:00,
2013-04-26 10:42:00,60.4,25.3,29.79,WNW,285,3.0,6.0,26,0.00,,,0.00,779.0,meteohub,2013-04-26 16:42:00,
2013-04-26 10:47:00,61.0,25.9,29.80,NNW,336,4.0,7.0,26,0.00,,,0.00,788.0,meteohub,2013-04-26 16:47:00,
2013-04-26 10:52:00,60.6,24.6,29.79,NNW,348,1.0,9.0,25,0.00,,,0.00,802.0,meteohub,2013-04-26 16:52:00,
2013-04-26 10:57:00,61.5,25.3,29.79,NW,313,3.0,9.0,25,0.00,,,0.00,810.0,meteohub,2013-04-26 16:57:00,
2013-04-26 11:02:00,60.6,24.6,29.79,NNW,335,2.0,9.0,25,0.00,,,0.00,817.0,meteohub,2013-04-26 17:02:00,
2013-04-26 11:07:00,62.2,25.0,29.79,West,280,2.0,9.0,24,0.00,,,0.00,830.0,meteohub,2013-04-26 17:07:00,
2013-04-26 11:12:00,62.1,24.8,29.79,WNW,294,0.0,9.0,24,0.00,,,0.00,840.0,meteohub,2013-04-26 17:12:00,
2013-04-26 11:17:00,61.5,25.3,29.79,South,184,3.0,9.0,25,0.00,,,0.00,849.0,meteohub,2013-04-26 17:17:00,
2013-04-26 11:22:00,61.3,24.3,29.79,East,86,3.0,8.0,24,0.00,,,0.00,858.0,meteohub,2013-04-26 17:22:00,
2013-04-26 11:27:00,62.8,25.5,29.79,South,186,1.0,8.0,24,0.00,,,0.00,867.0,meteohub,2013-04-26 17:27:00,
2013-04-26 11:32:00,63.1,24.8,29.78,WSW,237,7.0,7.0,23,0.00,,,0.00,870.0,meteohub,2013-04-26 17:32:00,
2013-04-26 11:37:00,63.1,24.8,29.78,SW,227,5.0,9.0,23,0.00,,,0.00,879.0,meteohub,2013-04-26 17:37:00,
2013-04-26 11:42:00,63.0,24.6,29.78,WSW,240,2.0,9.0,23,0.00,,,0.00,888.0,meteohub,2013-04-26 17:42:00,
2013-04-26 11:47:00,63.9,24.3,29.78,South,188,1.0,9.0,22,0.00,,,0.00,891.0,meteohub,2013-04-26 17:47:00,
2013-04-26 11:52:00,64.0,23.4,29.78,NNW,344,0.0,8.0,21,0.00,,,0.00,895.0,meteohub,2013-04-26 17:52:00,
2013-04-26 11:57:00,65.5,24.4,29.78,SE,144,1.0,6.0,21,0.00,,,0.00,904.0,meteohub,2013-04-26 17:57:00,
2013-04-26 12:02:00,65.7,24.6,29.78,West,261,4.0,7.0,21,0.00,,,0.00,907.0,meteohub,2013-04-26 18:02:00,
2013-04-26 12:07:00,66.0,23.7,29.77,WNW,286,5.0,7.0,20,0.00,,,0.00,916.0,meteohub,2013-04-26 18:07:00,
2013-04-26 12:12:00,65.7,24.6,29.77,SSE,148,3.0,12.0,21,0.00,,,0.00,918.0,meteohub,2013-04-26 18:12:00,
2013-04-26 12:17:00,65.7,24.6,29.77,SSW,204,1.0,12.0,21,0.00,,,0.00,925.0,meteohub,2013-04-26 18:17:00,
2013-04-26 12:22:00,66.6,24.3,29.77,SE,146,3.0,12.0,20,0.00,,,0.00,925.0,meteohub,2013-04-26 18:22:00,
2013-04-26 12:27:00,66.4,22.8,29.76,South,178,1.0,10.0,19,0.00,,,0.00,926.0,meteohub,2013-04-26 18:27:00,
2013-04-26 12:32:00,66.6,24.3,29.76,East,97,2.0,10.0,20,0.00,,,0.00,930.0,meteohub,2013-04-26 18:32:00,
2013-04-26 12:37:00,67.6,23.9,29.75,SSW,212,5.0,10.0,19,0.00,,,0.00,933.0,meteohub,2013-04-26 18:37:00,
2013-04-26 12:42:00,68.0,22.8,29.75,South,184,9.0,9.0,18,0.00,,,0.00,935.0,meteohub,2013-04-26 18:42:00,
2013-04-26 12:47:00,67.6,22.6,29.75,South,190,4.0,10.0,18,0.00,,,0.00,937.0,meteohub,2013-04-26 18:47:00,
2013-04-26 12:52:00,68.2,21.7,29.75,SSW,194,0.0,10.0,17,0.00,,,0.00,954.0,meteohub,2013-04-26 18:52:00,
2013-04-26 12:57:00,68.4,23.2,29.75,SSE,147,2.0,10.0,18,0.00,,,0.00,963.0,meteohub,2013-04-26 18:57:00,
2013-04-26 13:02:00,69.3,21.2,29.75,NE,38,4.0,9.0,16,0.00,,,0.00,965.0,meteohub,2013-04-26 19:02:00,
2013-04-26 13:07:00,69.4,21.2,29.75,South,175,2.0,10.0,16,0.00,,,0.00,974.0,meteohub,2013-04-26 19:07:00,
2013-04-26 13:12:00,69.8,23.0,29.75,SW,219,6.0,10.0,17,0.00,,,0.00,953.0,meteohub,2013-04-26 19:12:00,
2013-04-26 13:17:00,68.5,20.5,29.75,West,278,1.0,10.0,16,0.00,,,0.00,962.0,meteohub,2013-04-26 19:17:00,
2013-04-26 13:22:00,70.7,22.3,29.74,South,182,5.0,9.0,16,0.00,,,0.00,962.0,meteohub,2013-04-26 19:22:00,
2013-04-26 13:27:00,70.3,18.9,29.74,West,281,5.0,9.0,14,0.00,,,0.00,962.0,meteohub,2013-04-26 19:27:00,
2013-04-26 13:32:00,70.0,16.9,29.74,West,269,5.0,9.0,13,0.00,,,0.00,949.0,meteohub,2013-04-26 19:32:00,
2013-04-26 13:37:00,71.4,14.2,29.74,WNW,294,4.0,9.0,11,0.00,,,0.00,944.0,meteohub,2013-04-26 19:37:00,
2013-04-26 13:42:00,70.2,13.1,29.74,NNW,338,5.0,9.0,11,0.00,,,0.00,954.0,meteohub,2013-04-26 19:42:00,
2013-04-26 13:47:00,70.9,13.8,29.74,West,275,9.0,9.0,11,0.00,,,0.00,969.0,meteohub,2013-04-26 19:47:00,
2013-04-26 13:52:00,72.0,10.0,29.74,West,271,11.0,15.0,9,0.00,,,0.00,956.0,meteohub,2013-04-26 19:52:00,
2013-04-26 13:57:00,72.7,10.6,29.74,WNW,298,7.0,15.0,9,0.00,,,0.00,935.0,meteohub,2013-04-26 19:57:00,
2013-04-26 14:02:00,73.0,8.2,29.73,WNW,292,6.0,15.0,8,0.00,,,0.00,928.0,meteohub,2013-04-26 20:02:00,
2013-04-26 14:07:00,72.7,10.6,29.73,NW,309,16.0,16.0,9,0.00,,,0.00,916.0,meteohub,2013-04-26 20:07:00,
2013-04-26 14:12:00,72.5,7.9,29.74,NNW,341,12.0,19.0,8,0.00,,,0.00,914.0,meteohub,2013-04-26 20:12:00,
2013-04-26 14:17:00,72.3,4.8,29.74,NNW,331,10.0,19.0,7,0.00,,,0.00,905.0,meteohub,2013-04-26 20:17:00,
2013-04-26 14:22:00,72.1,4.6,29.73,NNW,335,5.0,19.0,7,0.00,,,0.00,900.0,meteohub,2013-04-26 20:22:00,
2013-04-26 14:27:00,72.0,1.2,29.73,NW,325,7.0,13.0,6,0.00,,,0.00,888.0,meteohub,2013-04-26 20:27:00,
2013-04-26 14:32:00,72.3,4.8,29.73,NW,306,7.0,19.0,7,0.00,,,0.00,879.0,meteohub,2013-04-26 20:32:00,
2013-04-26 14:37:00,72.5,4.8,29.73,NW,308,10.0,20.0,7,0.00,,,0.00,868.0,meteohub,2013-04-26 20:37:00,
2013-04-26 14:42:00,72.7,5.0,29.73,NW,304,8.0,20.0,7,0.00,,,0.00,863.0,meteohub,2013-04-26 20:42:00,
2013-04-26 14:47:00,72.3,4.8,29.73,NW,323,5.0,20.0,7,0.00,,,0.00,858.0,meteohub,2013-04-26 20:47:00,
2013-04-26 14:52:00,73.0,5.4,29.73,NNW,336,8.0,19.0,7,0.00,,,0.00,851.0,meteohub,2013-04-26 20:52:00,
2013-04-26 14:57:00,72.7,5.0,29.73,NW,313,6.0,14.0,7,0.00,,,0.00,846.0,meteohub,2013-04-26 20:57:00,
2013-04-26 15:02:00,72.3,1.4,29.73,NW,319,1.0,14.0,6,0.00,,,0.00,831.0,meteohub,2013-04-26 21:02:00,
2013-04-26 15:07:00,72.3,1.4,29.73,NNW,342,11.0,15.0,6,0.00,,,0.00,821.0,meteohub,2013-04-26 21:07:00,
2013-04-26 15:12:00,72.3,1.4,29.72,NNW,345,9.0,16.0,6,0.00,,,0.00,816.0,meteohub,2013-04-26 21:12:00,
2013-04-26 15:17:00,72.9,1.8,29.72,North,351,3.0,16.0,6,0.00,,,0.00,805.0,meteohub,2013-04-26 21:17:00,
2013-04-26 15:22:00,73.2,2.1,29.72,WNW,301,3.0,16.0,6,0.00,,,0.00,782.0,meteohub,2013-04-26 21:22:00,
2013-04-26 15:27:00,73.4,2.1,29.72,NNW,336,5.0,15.0,6,0.00,,,0.00,768.0,meteohub,2013-04-26 21:27:00,
2013-04-26 15:32:00,74.1,-1.1,29.72,NNW,327,11.0,15.0,5,0.00,,,0.00,761.0,meteohub,2013-04-26 21:32:00,
2013-04-26 15:37:00,73.8,2.5,29.72,NW,323,8.0,14.0,6,0.00,,,0.00,747.0,meteohub,2013-04-26 21:37:00,
2013-04-26 15:42:00,73.2,-1.8,29.72,SW,220,4.0,15.0,5,0.00,,,0.00,731.0,meteohub,2013-04-26 21:42:00,
2013-04-26 15:47:00,73.6,2.3,29.72,West,259,4.0,15.0,6,0.00,,,0.00,715.0,meteohub,2013-04-26 21:47:00,
2013-04-26 15:52:00,73.6,-6.2,29.71,NW,317,3.0,12.0,4,0.00,,,0.00,701.0,meteohub,2013-04-26 21:52:00,
2013-04-26 15:57:00,73.9,-6.0,29.71,WNW,290,10.0,12.0,4,0.00,,,0.00,689.0,meteohub,2013-04-26 21:57:00,
2013-04-26 16:02:00,74.1,-5.8,29.71,NNW,330,7.0,18.0,4,0.00,,,0.00,673.0,meteohub,2013-04-26 22:02:00,
2013-04-26 16:07:00,73.8,-6.2,29.71,WSW,248,3.0,18.0,4,0.00,,,0.00,661.0,meteohub,2013-04-26 22:07:00,
2013-04-26 16:12:00,73.9,-6.0,29.71,West,280,5.0,18.0,4,0.00,,,0.00,645.0,meteohub,2013-04-26 22:12:00,
2013-04-26 16:17:00,73.9,-6.0,29.71,NW,324,9.0,12.0,4,0.00,,,0.00,631.0,meteohub,2013-04-26 22:17:00,
2013-04-26 16:22:00,74.1,-11.7,29.71,NW,322,4.0,16.0,3,0.00,,,0.00,613.0,meteohub,2013-04-26 22:22:00,
2013-04-26 16:27:00,73.9,-11.7,29.71,WNW,297,6.0,16.0,3,0.00,,,0.00,598.0,meteohub,2013-04-26 22:27:00,
2013-04-26 16:32:00,73.6,-12.1,29.71,NW,321,3.0,15.0,3,0.00,,,0.00,584.0,meteohub,2013-04-26 22:32:00,
2013-04-26 16:37:00,73.2,-12.3,29.71,NW,317,5.0,16.0,3,0.00,,,0.00,570.0,meteohub,2013-04-26 22:37:00,
2013-04-26 16:42:00,73.4,-12.1,29.71,WNW,302,4.0,16.0,3,0.00,,,0.00,552.0,meteohub,2013-04-26 22:42:00,
2013-04-26 16:47:00,73.2,-12.3,29.70,North,350,4.0,16.0,3,0.00,,,0.00,533.0,meteohub,2013-04-26 22:47:00,
2013-04-26 16:52:00,73.0,-6.5,29.71,West,268,7.0,13.0,4,0.00,,,0.00,519.0,meteohub,2013-04-26 22:52:00,
2013-04-26 16:57:00,73.9,-11.7,29.71,West,261,10.0,13.0,3,0.00,,,0.00,503.0,meteohub,2013-04-26 22:57:00,
2013-04-26 17:02:00,73.8,-11.9,29.71,NW,313,19.0,19.0,3,0.00,,,0.00,478.0,meteohub,2013-04-26 23:02:00,
2013-04-26 17:07:00,73.2,-12.3,29.71,NNW,344,10.0,19.0,3,0.00,,,0.00,469.0,meteohub,2013-04-26 23:07:00,
2013-04-26 17:12:00,72.9,-12.5,29.71,NW,312,11.0,19.0,3,0.00,,,0.00,457.0,meteohub,2013-04-26 23:12:00,
2013-04-26 17:17:00,72.7,-12.6,29.71,West,281,3.0,19.0,3,0.00,,,0.00,394.0,meteohub,2013-04-26 23:17:00,
2013-04-26 17:22:00,73.2,-12.3,29.71,WSW,255,6.0,17.0,3,0.00,,,0.00,355.0,meteohub,2013-04-26 23:22:00,
2013-04-26 17:27:00,73.0,-12.5,29.71,North,9,12.0,15.0,3,0.00,,,0.00,225.0,meteohub,2013-04-26 23:27:00,
2013-04-26 17:32:00,72.5,-12.8,29.71,North,351,5.0,18.0,3,0.00,,,0.00,130.0,meteohub,2013-04-26 23:32:00,
2013-04-26 17:37:00,72.1,-7.2,29.71,NNW,346,12.0,18.0,4,0.00,,,0.00,84.0,meteohub,2013-04-26 23:37:00,
2013-04-26 17:42:00,71.2,-7.8,29.71,NW,309,3.0,18.0,4,0.00,,,0.00,83.0,meteohub,2013-04-26 23:42:00,
2013-04-26 17:47:00,71.4,-7.8,29.72,WNW,291,11.0,15.0,4,0.00,,,0.00,84.0,meteohub,2013-04-26 23:47:00,
2013-04-26 17:52:00,71.6,-7.6,29.72,NW,319,6.0,15.0,4,0.00,,,0.00,214.0,meteohub,2013-04-26 23:52:00,
2013-04-26 18:07:00,71.6,-13.4,29.72,NNW,328,4.0,10.0,3,0.00,,,0.00,227.0,meteohub,2013-04-27 00:07:00,
2013-04-26 18:12:00,71.6,-7.6,29.72,North,355,6.0,10.0,4,0.00,,,0.00,176.0,meteohub,2013-04-27 00:12:00,
2013-04-26 18:17:00,72.0,-7.2,29.72,NW,313,9.0,12.0,4,0.00,,,0.00,114.0,meteohub,2013-04-27 00:17:00,
2013-04-26 18:22:00,71.4,-7.8,29.72,WNW,288,3.0,13.0,4,0.00,,,0.00,102.0,meteohub,2013-04-27 00:22:00,
2013-04-26 18:27:00,71.2,-7.8,29.73,West,269,8.0,13.0,4,0.00,,,0.00,70.0,meteohub,2013-04-27 00:27:00,
2013-04-26 18:32:00,70.9,-3.5,29.73,WNW,290,5.0,13.0,5,0.00,,,0.00,63.0,meteohub,2013-04-27 00:32:00,
2013-04-26 18:37:00,70.7,-3.6,29.73,WNW,300,6.0,13.0,5,0.00,,,0.00,58.0,meteohub,2013-04-27 00:37:00,
2013-04-26 18:42:00,70.5,-3.6,29.73,West,275,8.0,13.0,5,0.00,,,0.00,56.0,meteohub,2013-04-27 00:42:00,
2013-04-26 18:47:00,70.3,-8.5,29.73,NW,318,5.0,13.0,4,0.00,,,0.00,54.0,meteohub,2013-04-27 00:47:00,
2013-04-26 18:52:00,70.2,-8.5,29.73,NW,324,5.0,13.0,4,0.00,,,0.00,62.0,meteohub,2013-04-27 00:52:00,
2013-04-26 18:57:00,70.3,-8.5,29.73,WNW,293,6.0,10.0,4,0.00,,,0.00,62.0,meteohub,2013-04-27 00:57:00,
2013-04-26 19:02:00,70.2,-8.5,29.73,NNW,334,4.0,8.0,4,0.00,,,0.00,56.0,meteohub,2013-04-27 01:02:00,
2013-04-26 19:07:00,70.0,-8.7,29.73,NNW,329,6.0,10.0,4,0.00,,,0.00,42.0,meteohub,2013-04-27 01:07:00,
2013-04-26 19:12:00,70.0,-4.2,29.74,North,0,5.0,10.0,5,0.00,,,0.00,37.0,meteohub,2013-04-27 01:12:00,
2013-04-26 19:17:00,69.6,-9.0,29.74,NNW,329,5.0,10.0,4,0.00,,,0.00,33.0,meteohub,2013-04-27 01:17:00,
2013-04-26 19:22:00,69.6,-4.4,29.74,North,5,6.0,7.0,5,0.00,,,0.00,28.0,meteohub,2013-04-27 01:22:00,
2013-04-26 19:27:00,69.4,-4.5,29.75,NW,317,12.0,12.0,5,0.00,,,0.00,23.0,meteohub,2013-04-27 01:27:00,
2013-04-26 19:32:00,69.3,-0.8,29.75,NW,310,6.0,17.0,6,0.00,,,0.00,18.0,meteohub,2013-04-27 01:32:00,
2013-04-26 19:37:00,69.3,-4.5,29.75,WNW,298,6.0,17.0,5,0.00,,,0.00,11.0,meteohub,2013-04-27 01:37:00,
2013-04-26 19:42:00,69.1,-4.7,29.75,ESE,117,0.0,17.0,5,0.00,,,0.00,5.0,meteohub,2013-04-27 01:42:00,
2013-04-26 19:47:00,68.9,-1.1,29.75,ENE,76,3.0,10.0,6,0.00,,,0.00,0.0,meteohub,2013-04-27 01:47:00,
2013-04-26 19:52:00,68.5,-1.3,29.75,North,9,5.0,9.0,6,0.00,,,0.00,0.0,meteohub,2013-04-27 01:52:00,
2013-04-26 19:57:00,68.4,1.8,29.76,NNE,17,2.0,6.0,7,0.00,,,0.00,0.0,meteohub,2013-04-27 01:57:00,
2013-04-26 20:02:00,68.2,1.8,29.76,NNW,342,0.0,6.0,7,0.00,,,0.00,0.0,meteohub,2013-04-27 02:02:00,
2013-04-26 20:07:00,67.8,1.4,29.76,North,355,2.0,6.0,7,0.00,,,0.00,0.0,meteohub,2013-04-27 02:07:00,
2013-04-26 20:12:00,67.5,1.2,29.77,North,355,2.0,6.0,7,0.00,,,0.00,0.0,meteohub,2013-04-27 02:12:00,
2013-04-26 20:17:00,67.1,3.7,29.77,North,355,1.0,6.0,8,0.00,,,0.00,0.0,meteohub,2013-04-27 02:17:00,
2013-04-26 20:22:00,66.9,3.7,29.77,North,355,2.0,5.0,8,0.00,,,0.00,0.0,meteohub,2013-04-27 02:22:00,
2013-04-26 20:27:00,66.6,3.4,29.77,North,355,2.0,5.0,8,0.00,,,0.00,0.0,meteohub,2013-04-27 02:27:00,
2013-04-26 20:32:00,66.4,3.2,29.78,North,355,2.0,3.0,8,0.00,,,0.00,0.0,meteohub,2013-04-27 02:32:00,
2013-04-26 20:37:00,65.8,2.8,29.78,North,355,1.0,3.0,8,0.00,,,0.00,0.0,meteohub,2013-04-27 02:37:00,
2013-04-26 20:42:00,65.5,2.7,29.78,North,355,1.0,3.0,8,0.00,,,0.00,0.0,meteohub,2013-04-27 02:42:00,
2013-04-26 20:47:00,65.1,4.8,29.78,North,355,2.0,3.0,9,0.00,,,0.00,0.0,meteohub,2013-04-27 02:47:00,
2013-04-26 20:52:00,64.8,4.6,29.78,North,9,3.0,3.0,9,0.00,,,0.00,0.0,meteohub,2013-04-27 02:52:00,
2013-04-26 20:57:00,64.4,4.3,29.78,NNE,18,1.0,4.0,9,0.00,,,0.00,0.0,meteohub,2013-04-27 02:57:00,
2013-04-26 21:02:00,64.2,4.1,29.78,NNE,19,1.0,4.0,9,0.00,,,0.00,0.0,meteohub,2013-04-27 03:02:00,
2013-04-26 21:07:00,64.0,4.1,29.79,NNE,19,2.0,4.0,9,0.00,,,0.00,0.0,meteohub,2013-04-27 03:07:00,
2013-04-26 21:12:00,64.0,4.1,29.79,NNE,19,1.0,4.0,9,0.00,,,0.00,0.0,meteohub,2013-04-27 03:12:00,
2013-04-26 21:17:00,64.0,4.1,29.80,North,9,10.0,10.0,9,0.00,,,0.00,0.0,meteohub,2013-04-27 03:17:00,
2013-04-26 21:22:00,64.2,6.4,29.80,NE,36,5.0,10.0,10,0.00,,,0.00,0.0,meteohub,2013-04-27 03:22:00,
2013-04-26 21:27:00,64.0,6.3,29.80,NE,41,3.0,10.0,10,0.00,,,0.00,0.0,meteohub,2013-04-27 03:27:00,
2013-04-26 21:32:00,64.0,6.3,29.80,NE,43,3.0,10.0,10,0.00,,,0.00,0.0,meteohub,2013-04-27 03:32:00,
2013-04-26 21:37:00,63.7,6.1,29.80,NE,46,2.0,6.0,10,0.00,,,0.00,0.0,meteohub,2013-04-27 03:37:00,
2013-04-26 21:42:00,63.1,5.7,29.80,NE,56,1.0,5.0,10,0.00,,,0.00,0.0,meteohub,2013-04-27 03:42:00,
2013-04-26 21:47:00,62.2,7.0,29.81,ENE,57,0.0,3.0,11,0.00,,,0.00,0.0,meteohub,2013-04-27 03:47:00,
2013-04-26 21:52:00,61.5,8.4,29.81,East,96,3.0,3.0,12,0.00,,,0.00,0.0,meteohub,2013-04-27 03:52:00,
2013-04-26 21:57:00,61.3,19.9,29.81,SE,146,3.0,13.0,20,0.00,,,0.00,0.0,meteohub,2013-04-27 03:57:00,
2013-04-26 22:02:00,61.5,20.1,29.81,ESE,105,7.0,14.0,20,0.00,,,0.00,0.0,meteohub,2013-04-27 04:02:00,
2013-04-26 22:07:00,61.3,21.0,29.81,ESE,119,1.0,14.0,21,0.00,,,0.00,0.0,meteohub,2013-04-27 04:07:00,
2013-04-26 22:12:00,61.2,20.8,29.81,East,93,3.0,14.0,21,0.00,,,0.00,0.0,meteohub,2013-04-27 04:12:00,
2013-04-26 22:17:00,61.2,20.8,29.81,ESE,117,0.0,10.0,21,0.00,,,0.00,0.0,meteohub,2013-04-27 04:17:00,
2013-04-26 22:22:00,61.2,20.8,29.81,ESE,117,2.0,8.0,21,0.00,,,0.00,0.0,meteohub,2013-04-27 04:22:00,
2013-04-26 22:27:00,61.2,21.9,29.81,ESE,123,4.0,7.0,22,0.00,,,0.00,0.0,meteohub,2013-04-27 04:27:00,
2013-04-26 22:32:00,61.0,21.9,29.81,SE,124,1.0,4.0,22,0.00,,,0.00,0.0,meteohub,2013-04-27 04:32:00,
2013-04-26 22:37:00,60.4,21.4,29.81,SE,124,0.0,4.0,22,0.00,,,0.00,0.0,meteohub,2013-04-27 04:37:00,
2013-04-26 22:42:00,60.1,21.0,29.82,SE,124,0.0,4.0,22,0.00,,,0.00,0.0,meteohub,2013-04-27 04:42:00,
2013-04-26 22:47:00,60.1,21.0,29.82,SE,124,0.0,3.0,22,0.00,,,0.00,0.0,meteohub,2013-04-27 04:47:00,
2013-04-26 22:52:00,59.7,19.8,29.82,SSE,153,1.0,1.0,21,0.00,,,0.00,0.0,meteohub,2013-04-27 04:52:00,
2013-04-26 22:57:00,59.7,19.8,29.82,SW,232,2.0,4.0,21,0.00,,,0.00,0.0,meteohub,2013-04-27 04:57:00,
2013-04-26 23:02:00,59.7,20.8,29.82,SW,233,0.0,4.0,22,0.00,,,0.00,0.0,meteohub,2013-04-27 05:02:00,
2013-04-26 23:07:00,59.5,21.7,29.82,SW,232,1.0,4.0,23,0.00,,,0.00,0.0,meteohub,2013-04-27 05:07:00,
2013-04-26 23:12:00,59.2,22.5,29.83,SW,232,0.0,4.0,24,0.00,,,0.00,0.0,meteohub,2013-04-27 05:12:00,
2013-04-26 23:17:00,58.5,22.8,29.83,SW,232,0.0,3.0,25,0.00,,,0.00,0.0,meteohub,2013-04-27 05:17:00,
2013-04-26 23:22:00,57.9,23.2,29.83,SW,232,1.0,3.0,26,0.00,,,0.00,0.0,meteohub,2013-04-27 05:22:00,
2013-04-26 23:27:00,57.4,23.7,29.83,SW,232,0.0,2.0,27,0.00,,,0.00,0.0,meteohub,2013-04-27 05:27:00,
2013-04-26 23:32:00,57.0,23.4,29.83,SW,231,1.0,2.0,27,0.00,,,0.00,0.0,meteohub,2013-04-27 05:32:00,
2013-04-26 23:37:00,56.8,24.1,29.83,SW,232,1.0,2.0,28,0.00,,,0.00,0.0,meteohub,2013-04-27 05:37:00,
2013-04-26 23:42:00,56.8,23.2,29.83,ESE,103,2.0,2.0,27,0.00,,,0.00,0.0,meteohub,2013-04-27 05:42:00,
2013-04-26 23:47:00,57.9,25.0,29.83,East,91,1.0,7.0,28,0.00,,,0.00,0.0,meteohub,2013-04-27 05:47:00,
2013-04-26 23:52:00,58.6,27.3,29.83,SE,131,2.0,8.0,30,0.00,,,0.00,0.0,meteohub,2013-04-27 05:52:00,
2013-04-26 23:57:00,59.2,27.7,29.84,SSE,153,6.0,8.0,30,0.00,,,0.00,0.0,meteohub,2013-04-27 05:57:00,